#datint,netname,site,siteID,timestamp,IntT,BattV,AirT2,AirT,AirT_Avg,AirT_Max,AirT_Min,RH_Avg,RH_Max,RH_Min,EA_Avg,Td_Avg,Td_Max,Td_Min,WindS_Smp,WindS_Avg,WindD_Avg,WindD_SD,WindS_Max,ETo,ETr,SoilT4,SoilT8,SoilVWC8,SolarW_Avg,wetstate_Avg,wetT_Avg,Precip_accum,Precip_WPG,Precip_TB
15min,AgWx,beryljct,423,10MAY2018:01:00:00,56.6,13.01,55.9,55.9,55.5,57.4,52.5,33,41,26,0.452,26.4,29.8,22.2,3.946,5.0,180,12,5.9,0.00031,0.00045,64.2,64.1,15,0,0,53.5,13.79,0.00,0.00
15min,AgWx,beryljct,423,10MAY2018:01:15:00,56.0,13.01,57.9,62.9,56.9,62.9,53.3,31,38,25,0.505,26.1,28.9,22.7,6.708,5.0,188,11,9.6,0.00034,0.00049,63.9,64.0,15,0,0,54.3,13.79,0.00,0.00
15min,AgWx,beryljct,423,10MAY2018:01:30:00,57.3,13.01,64.8,64.9,64.2,66.0,62.2,24,26,23,0.526,27.2,28.6,25.8,5.919,6.8,194,8.9,9.8,0.00064,0.00087,63.6,63.9,15,0,0,61.6,13.79,0.00,0.00
15min,AgWx,beryljct,423,10MAY2018:01:45:00,58.9,12.98,63.2,61.0,63.5,64.8,61.0,26,32,23,0.578,27.6,30.6,25.9,4.626,5.9,189,7.0,7.5,0.00053,0.00075,63.4,63.8,15,0,0,60.9,13.79,0.00,0.00
15min,AgWx,beryljct,423,10MAY2018:02:00:00,59.3,12.99,62.3,61.7,62.1,63.0,60.3,27,32,25,0.531,27.6,30.7,26.1,5.502,6.0,203,5.1,7.6,0.00050,0.00071,63.2,63.7,15,0,0,59.1,13.79,0.00,0.00
15min,AgWx,beryljct,423,10MAY2018:02:15:00,59.6,12.99,62.4,63.4,62.1,63.4,61.5,28,29,25,0.504,28.4,29.3,27.2,6.555,6.3,203,8.1,7.9,0.00053,0.00073,62.9,63.6,15,0,0,59.2,13.79,0.00,0.00
15min,AgWx,beryljct,423,10MAY2018:02:30:00,58.9,12.98,54.9,52.2,55.9,63.4,52.1,39,48,25,0.623,31.4,33.4,27.3,8.07,6.6,148,5.6,8.1,0.00039,0.00053,62.7,63.5,15,0,0,54.7,13.79,0.00,0.00
15min,AgWx,beryljct,423,10MAY2018:02:45:00,56.9,12.97,55.4,56.4,54.7,57.5,52.3,39,47,32,0.544,30.1,32.8,27.5,7.388,6.2,160,8.5,8.0,0.00035,0.00049,62.5,63.4,15,0,0,52.7,13.79,0.00,0.00
15min,AgWx,beryljct,423,10MAY2018:03:00:00,55.8,12.96,56.4,59.1,55.9,59.8,52.3,36,46,27,0.498,29.0,32.4,25.6,6.642,7.7,160,15,8.9,0.00048,0.00063,62.3,63.3,15,0,0,54.4,13.79,0.00,0.00
15min,AgWx,beryljct,423,10MAY2018:03:15:00,55.3,12.95,55.2,56.3,55.3,59.0,53.3,35,40,29,0.462,27.9,29.6,24.9,3.924,4.8,189,17,6.9,0.00028,0.00042,62.1,63.2,15,0,0,53.2,13.79,0.00,0.00
15min,AgWx,beryljct,423,10MAY2018:03:30:00,54.2,12.95,53.3,53.5,53.4,56.2,50.9,38,48,29,0.524,28.0,31.9,24.1,2.784,3.9,159,16,6.6,0.00018,0.00028,61.9,63.1,15,0,0,51.0,13.79,0.00,0.00
15min,AgWx,beryljct,423,10MAY2018:03:45:00,53.0,12.95,53.3,52.8,53.1,54.3,51.8,41,46,36,0.554,30.0,32.5,27.5,5.239,4.4,151,3.9,6.7,0.00019,0.00029,61.7,63.0,15,0,0,50.2,13.80,0.00,0.00
15min,AgWx,beryljct,423,10MAY2018:04:00:00,51.8,12.94,48.2,48.8,48.5,52.9,46.1,56,64,41,0.582,33.2,34.9,29.8,1.929,3.1,154,41,6.3,0.00001,0.00004,61.5,62.9,15,0,0,47.2,13.79,0.00,0.00
15min,AgWx,beryljct,423,10MAY2018:04:15:00,50.7,12.93,50.0,50.5,49.5,52.5,47.1,49,58,39,0.586,30.9,33.3,27.8,5.327,2.6,151,35,5.4,-0.00001,0.00002,61.2,62.8,15,0,0,46.4,13.80,0.00,0.00
15min,AgWx,beryljct,423,10MAY2018:04:30:00,50.1,12.92,48.8,48.4,48.8,52.1,46.1,54,61,43,0.626,32.7,33.8,30.2,3.42,4.1,150,18,6.5,0.00009,0.00015,61.0,62.7,15,0,0,47.0,13.80,0.00,0.00
15min,AgWx,beryljct,423,10MAY2018:04:45:00,49.4,12.91,49.8,49.7,49.4,51.8,47.5,49,56,41,0.561,31.1,33.0,28.9,0.592,3.1,192,21,5.3,0.00004,0.00008,60.8,62.6,15,0,0,46.6,13.80,0.00,0.00
15min,AgWx,beryljct,423,10MAY2018:05:00:00,48.7,12.91,48.4,49.2,48.2,50.6,46.4,53,60,46,0.585,31.9,33.2,30.0,0,1.6,323,31,3.4,-0.00012,-0.00014,60.6,62.5,15,0,0,46.0,13.80,0.00,0.00
15min,AgWx,beryljct,423,10MAY2018:05:15:00,48.1,12.91,51.5,51.2,51.0,53.2,48.9,45,50,39,0.565,30.2,31.2,29.1,0.373,0.3,290,6.4,1.0,-0.00031,-0.00048,60.3,62.4,15,0,0,45.8,13.80,0.00,0.00
15min,AgWx,beryljct,423,10MAY2018:05:30:00,47.7,12.9,48.5,48.1,48.6,52.7,45.6,51,59,40,0.606,31.2,32.2,28.7,0.044,1.1,70,46,3.7,-0.00018,-0.00024,60.1,62.3,15,0,0,45.8,13.80,0.00,0.00
15min,AgWx,beryljct,423,10MAY2018:05:45:00,47.5,12.9,48.4,48.0,48.2,49.8,47.0,50,55,44,0.529,30.3,32.0,28.5,0,1.6,344,53,4.2,0.00020,0.00034,59.9,62.2,15,0,0,45.7,13.80,0.00,0.00
15min,AgWx,beryljct,423,10MAY2018:06:00:00,47.3,12.89,48.2,46.3,48.1,49.8,46.1,46,53,42,0.545,28.4,29.8,27.2,0.482,0.9,32,40,2.9,0.00013,0.00022,59.7,62.0,15,0,0,44.8,13.80,0.00,0.00
15min,AgWx,beryljct,423,10MAY2018:06:15:00,47.0,12.89,48.5,49.6,47.8,49.6,46.4,47,53,39,0.473,28.7,30.3,25.7,6.072,2.3,43,84,6.8,0.00028,0.00048,59.5,61.9,16,0,0,45.0,13.80,0.00,0.00
15min,AgWx,beryljct,423,10MAY2018:06:30:00,47.3,12.89,48.1,46.1,48.2,52.1,45.9,42,48,35,0.497,25.9,28.8,24.3,0.745,4.5,358,18,6.5,0.00059,0.00103,59.3,61.8,16,3,0,47.1,13.80,0.00,0.00
15min,AgWx,beryljct,423,10MAY2018:06:45:00,47.4,12.89,49.1,49.8,48.4,51.8,43.8,42,56,35,0.454,26.3,29.2,24.4,5.283,5.6,326,27,7.9,0.00078,0.00130,59.1,61.7,16,21,0,48.7,13.80,0.00,0.00
15min,AgWx,beryljct,423,10MAY2018:07:00:00,48.2,12.91,49.9,50.4,49.7,50.5,47.8,43,47,38,0.544,28.0,29.9,25.2,3.573,3.8,22,45,7.5,0.00076,0.00115,58.8,61.6,16,50,0,53.8,13.80,0.00,0.00
15min,AgWx,beryljct,423,10MAY2018:07:15:00,49.1,12.9,50.2,52.3,49.9,52.7,48.3,47,53,41,0.591,30.5,32.0,27.7,3.814,2.5,233,65,6.6,0.00074,0.00101,58.6,61.5,16,89,0,59.2,13.80,0.00,0.00
15min,AgWx,beryljct,423,10MAY2018:07:30:00,51.0,12.91,56.3,58.2,55.6,60.6,50.9,41,52,30,0.604,31.7,35.7,27.7,0.285,2.1,216,33,5.3,0.00099,0.00130,58.5,61.4,15,133,0,69.1,13.79,0.00,0.00
15min,AgWx,beryljct,423,10MAY2018:07:45:00,53.6,12.91,57.0,55.7,57.0,59.6,55.1,47,58,33,0.770,36.8,40.5,30.3,3.639,2.4,144,26,6.6,0.00122,0.00154,58.3,61.3,15,179,0,76.9,13.79,0.00,0.00
15min,AgWx,beryljct,423,10MAY2018:08:00:00,56.6,12.94,62.6,64.5,61.7,64.8,55.9,38,54,30,0.713,35.2,39.8,31.8,4.165,4.3,177,15,8.6,0.00185,0.00248,58.1,61.2,15,227,0,79.6,13.79,0.00,0.00
15min,AgWx,beryljct,423,10MAY2018:08:15:00,60.2,12.96,65.2,66.1,65.0,66.3,64.1,34,40,26,0.672,36.2,39.9,30.9,6.796,4.7,147,17,7.0,0.00228,0.00303,58.1,61.0,15,279,0,83.9,13.79,0.00,0.00
15min,AgWx,beryljct,423,10MAY2018:08:30:00,63.3,13.01,66.4,66.9,66.3,67.4,65.5,33,41,22,0.817,36.5,41.4,27.5,3.201,4.3,142,11,7.3,0.00257,0.00332,58.0,60.9,15,332,0,87.5,13.78,0.00,0.00
15min,AgWx,beryljct,423,10MAY2018:08:45:00,65.7,13.08,67.5,68.5,67.4,68.5,66.6,33,41,28,0.715,37.3,42.0,32.7,0,3.0,150,26,8.6,0.00274,0.00335,57.9,60.8,15,385,0,92.5,13.78,0.00,0.00
15min,AgWx,beryljct,423,10MAY2018:09:00:00,67.9,13.25,69.9,70.3,69.8,70.3,68.6,25,29,21,0.579,32.1,35.7,28.6,10.5,10.0,209,11,15.5,0.00410,0.00574,57.9,60.7,16,437,0,89.1,13.78,0.00,0.00
15min,AgWx,beryljct,423,10MAY2018:09:15:00,69.6,13.46,70.5,71.1,70.4,71.1,70.0,22,24,20,0.538,29.9,31.7,28.0,12.8,14.2,207,9.6,17.7,0.00495,0.00715,58.0,60.6,15,490,0,85.8,13.78,0.00,0.00
15min,AgWx,beryljct,423,10MAY2018:09:30:00,71.0,13.73,71.6,71.9,71.6,72.0,71.1,21,24,19,0.528,29.4,32.6,26.8,20.85,13.0,201,11,20.9,0.00520,0.00734,58.1,60.5,15,541,0,88.4,13.77,0.00,0.00
15min,AgWx,beryljct,423,10MAY2018:09:45:00,72.2,14.09,72.0,72.2,72.1,72.6,71.8,20,23,18,0.549,28.9,32.1,26.8,13.9,15.2,196,8.7,22.2,0.00575,0.00820,58.1,60.4,15,591,0,87.8,13.77,0.00,0.00
15min,AgWx,beryljct,423,10MAY2018:10:00:00,73.1,14.07,72.1,72.6,72.2,72.6,71.8,20,22,18,0.567,29.0,31.2,26.9,13.13,16.4,193,10,23.1,0.00610,0.00868,58.2,60.3,15,638,0,87.6,13.77,0.00,0.00
15min,AgWx,beryljct,423,10MAY2018:10:15:00,73.9,14.05,72.7,72.8,72.8,73.2,72.5,21,23,19,0.587,30.3,32.9,28.1,11.66,14.5,198,13,19.3,0.00619,0.00860,58.4,60.2,15,683,0,89.9,13.77,0.00,0.00
15min,AgWx,beryljct,423,10MAY2018:10:30:00,74.7,14.04,73.1,73.1,73.2,73.8,72.8,21,25,19,0.642,31.5,35.7,28.7,14.47,12.9,208,14,19.1,0.00627,0.00852,58.5,60.1,15,726,0,92.1,13.76,0.00,0.00
15min,AgWx,beryljct,423,10MAY2018:10:45:00,75.2,14.02,73.6,73.6,73.6,74.2,73.1,20,23,17,0.592,30.3,34.0,26.4,13.7,13.0,201,12,17.6,0.00659,0.00891,58.7,60.1,15,769,0,92.9,13.76,0.00,0.00
15min,AgWx,beryljct,423,10MAY2018:11:00:00,75.8,14,73.7,74.2,73.8,74.3,73.2,20,24,18,0.656,30.6,34.5,27.4,10.61,12.3,204,15,20.0,0.00674,0.00900,58.9,60.0,15,807,0,93.7,13.76,0.00,0.00
15min,AgWx,beryljct,423,10MAY2018:11:15:00,76.1,14.05,73.9,74.2,74.0,74.6,73.6,21,25,18,0.598,31.0,35.7,27.9,11.9,12.6,214,11,19.6,0.00697,0.00928,59.1,60.0,15,843,0,94.1,13.76,0.00,0.00
15min,AgWx,beryljct,423,10MAY2018:11:30:00,76.5,14,74.1,74.7,74.3,74.8,73.9,21,25,17,0.679,31.8,36.3,27.0,14.6,12.8,222,13,18.9,0.00716,0.00949,59.4,60.0,15,876,0,93.0,13.76,0.00,0.00
15min,AgWx,beryljct,423,10MAY2018:11:45:00,76.8,13.99,74.3,74.6,74.5,74.9,74.1,21,25,19,0.638,31.7,36.0,28.9,12.91,13.4,217,10,18.1,0.00742,0.00984,59.6,60.0,15,907,0,93.6,13.76,0.00,0.00
15min,AgWx,beryljct,423,10MAY2018:12:00:00,77.0,14,74.9,75.6,75.0,76.0,74.3,21,24,18,0.565,32.1,36.3,28.7,10.13,11.8,218,13,17.6,0.00747,0.00974,60.0,60.0,15,933,0,94.8,13.76,0.00,0.00
15min,AgWx,beryljct,423,10MAY2018:12:15:00,77.7,13.56,75.8,75.9,75.9,77.6,75.3,18,21,16,0.512,29.8,33.8,26.2,8.99,10.7,203,16,16.5,0.00763,0.00985,60.3,60.0,15,955,0,97.8,13.76,0.00,0.00
15min,AgWx,beryljct,423,10MAY2018:12:30:00,78.4,13.57,76.7,77.7,76.8,77.7,75.6,19,21,16,0.568,30.8,34.8,27.1,12.85,11.2,199,17,16.8,0.00785,0.01015,60.7,60.1,15,975,0,97.9,13.76,0.00,0.00
15min,AgWx,beryljct,423,10MAY2018:12:45:00,79.0,13.54,77.0,77.0,77.2,77.8,76.6,18,22,14,0.526,30.7,35.3,24.8,13.07,11.4,205,14,19.4,0.00800,0.01036,61.1,60.1,15,991,0,98.8,13.76,0.00,0.00
15min,AgWx,beryljct,423,10MAY2018:13:00:00,79.5,13.53,77.1,76.6,77.3,77.8,76.6,17,21,14,0.561,29.1,34.4,25.3,12.82,12.3,198,20,17.5,0.00819,0.01070,61.6,60.2,15,1004,0,97.0,13.76,0.00,0.00
15min,AgWx,beryljct,423,10MAY2018:13:15:00,79.6,13.53,77.0,77.3,77.1,78.6,76.3,18,22,16,0.575,30.7,35.9,27.1,17.1,13.2,217,16,21.0,0.00825,0.01083,62.1,60.3,15,1012,0,95.4,13.76,0.00,0.00
15min,AgWx,beryljct,423,10MAY2018:13:30:00,79.8,13.54,77.4,77.9,77.5,78.4,76.9,17,22,15,0.595,29.2,35.2,25.6,14.47,13.5,201,14,24.3,0.00841,0.01110,62.6,60.4,15,1018,0,96.1,13.76,0.00,0.00
15min,AgWx,beryljct,423,10MAY2018:13:45:00,80.0,13.51,77.7,77.8,77.8,78.7,76.8,17,21,14,0.539,29.2,35.4,25.2,10.65,13.7,205,18,20.5,0.00849,0.01122,63.2,60.5,15,1023,0,95.6,13.76,0.00,0.00
15min,AgWx,beryljct,423,10MAY2018:14:00:00,80.2,13.52,77.4,78.1,77.6,78.5,76.6,17,21,15,0.584,29.9,34.6,26.2,14.32,13.2,211,15,19.0,0.00820,0.01082,63.7,60.7,15,991,0,94.1,13.76,0.00,0.00
15min,AgWx,beryljct,423,10MAY2018:14:15:00,80.6,13.5,78.4,78.4,78.5,79.5,78.0,16,20,13,0.522,28.9,34.7,23.6,15.08,13.4,199,11,21.1,0.00852,0.01125,64.2,60.8,15,1019,0,96.1,13.76,0.00,0.00
15min,AgWx,beryljct,423,10MAY2018:14:30:00,81.0,13.52,77.9,78.1,78.2,78.9,77.6,17,20,14,0.607,29.2,34.4,25.3,11.93,13.7,207,19,20.2,0.00831,0.01104,64.8,61.0,15,985,0,94.2,13.76,0.00,0.00
15min,AgWx,beryljct,423,10MAY2018:14:45:00,81.4,13.47,78.9,79.1,78.9,79.8,78.0,15,19,12,0.528,27.6,33.2,22.0,11.95,13.6,193,17,21.3,0.00847,0.01126,65.3,61.2,15,995,0,94.7,13.76,0.00,0.00
15min,AgWx,beryljct,423,10MAY2018:15:00:00,82.1,13.46,79.1,79.0,79.3,80.0,78.5,16,19,13,0.533,28.7,33.4,24.5,11.73,13.5,200,16,19.8,0.00839,0.01116,65.8,61.4,15,979,0,94.5,13.76,0.00,0.00
15min,AgWx,beryljct,423,10MAY2018:15:15:00,82.3,13.53,78.4,78.4,78.6,79.3,78.2,15,19,13,0.554,27.8,33.3,23.7,11.79,12.5,197,12,18.8,0.00712,0.00967,66.3,61.6,15,798,0,92.4,13.76,0.00,0.00
15min,AgWx,beryljct,423,10MAY2018:15:30:00,81.9,13.5,77.3,76.2,77.6,78.8,76.2,15,19,12,0.495,26.8,31.7,20.7,10.74,13.4,204,13,21.6,0.00588,0.00845,66.6,61.7,15,523,0,87.6,13.76,0.00,0.00
15min,AgWx,beryljct,423,10MAY2018:15:45:00,81.0,13.52,77.6,79.5,77.5,79.5,76.0,15,17,13,0.479,26.1,29.6,21.6,15.26,13.2,194,10,18.0,0.00646,0.00904,66.9,61.9,15,683,0,87.6,13.76,0.00,0.00
15min,AgWx,beryljct,423,10MAY2018:16:00:00,81.8,13.44,79.3,78.7,79.6,80.2,78.7,15,18,12,0.544,27.8,32.6,23.2,10.22,14.4,203,14,19.2,0.00792,0.01082,67.1,62.1,15,871,0,92.8,13.76,0.00,0.00
15min,AgWx,beryljct,423,10MAY2018:16:15:00,82.1,13.45,78.6,78.7,78.7,79.5,78.0,16,22,13,0.537,28.7,36.0,23.9,10.48,14.2,212,12,21.1,0.00713,0.00990,67.3,62.3,15,771,0,89.5,13.76,0.00,0.00
15min,AgWx,beryljct,423,10MAY2018:16:30:00,82.6,13.46,79.1,78.3,79.2,79.9,78.3,15,17,13,0.491,27.5,31.5,24.8,12.08,15.0,193,13,22.1,0.00689,0.00979,67.4,62.5,15,695,0,88.6,13.76,0.00,0.00
15min,AgWx,beryljct,423,10MAY2018:16:45:00,82.1,13.49,78.1,78.5,78.2,78.9,77.5,16,18,14,0.529,28.0,31.2,25.0,13.64,14.4,194,10,18.9,0.00577,0.00846,67.5,62.7,15,541,0,85.0,13.76,0.00,0.00
15min,AgWx,beryljct,423,10MAY2018:17:00:00,82.0,13.44,78.5,78.7,78.6,79.1,78.2,16,19,14,0.581,29.0,33.0,25.1,10.85,13.4,204,12,19.2,0.00645,0.00906,67.7,62.8,15,673,0,86.9,13.76,0.00,0.00
15min,AgWx,beryljct,423,10MAY2018:17:15:00,82.0,13.45,78.6,78.7,78.7,79.3,77.9,17,20,14,0.594,29.6,34.3,25.0,7.651,12.0,205,12,18.3,0.00583,0.00822,67.9,63.0,15,606,0,85.8,13.76,0.00,0.00
15min,AgWx,beryljct,423,10MAY2018:17:30:00,82.2,13.44,78.8,78.5,79.0,79.3,78.5,16,20,13,0.554,28.5,34.7,24.2,10.98,13.5,202,19,21.4,0.00603,0.00864,68.1,63.1,15,597,0,85.2,13.76,0.00,0.00
15min,AgWx,beryljct,423,10MAY2018:17:45:00,82.1,13.47,78.4,78.5,78.5,78.9,78.1,17,20,15,0.510,30.0,33.5,27.5,12.63,12.9,216,14,19.4,0.00567,0.00815,68.2,63.3,15,563,0,83.9,13.76,0.00,0.00
15min,AgWx,beryljct,423,10MAY2018:18:00:00,82.0,13.41,78.4,78.8,78.5,78.9,78.1,17,20,15,0.555,29.8,33.8,26.5,12.39,12.8,214,13,20.2,0.00574,0.00821,68.5,63.4,15,577,0,84.5,13.76,0.00,0.00
15min,AgWx,beryljct,423,10MAY2018:18:15:00,82.0,13.44,78.6,79.0,78.7,79.0,78.3,16,18,14,0.514,28.0,31.4,25.1,14.4,15.2,197,13,21.7,0.00584,0.00866,68.7,63.5,15,526,0,84.2,13.76,0.00,0.00
15min,AgWx,beryljct,423,10MAY2018:18:30:00,81.6,13.45,78.3,78.0,78.4,78.8,78.0,14,16,13,0.472,25.8,29.1,24.2,14.38,16.8,179,11,22.7,0.00546,0.00846,68.9,63.7,15,418,0,81.3,13.76,0.00,0.00
15min,AgWx,beryljct,423,10MAY2018:18:45:00,81.1,13.49,78.1,77.9,78.2,78.8,77.9,14,16,13,0.455,25.8,28.3,23.8,16.66,16.1,192,8.1,21.8,0.00490,0.00779,69.1,63.8,15,343,0,79.5,13.76,0.00,0.00
15min,AgWx,beryljct,423,10MAY2018:19:00:00,80.4,13.35,77.7,77.5,77.8,78.0,77.5,14,16,13,0.463,24.9,27.2,23.4,15.39,14.8,189,9.4,20.0,0.00433,0.00702,69.2,63.9,15,284,0,78.0,13.76,0.00,0.00
15min,AgWx,beryljct,423,10MAY2018:19:15:00,79.7,13.31,76.8,76.8,76.9,77.7,76.6,15,18,14,0.481,25.9,30.0,23.4,13.59,13.6,208,12,20.1,0.00373,0.00618,69.3,64.0,15,229,0,76.4,13.77,0.00,0.00
15min,AgWx,beryljct,423,10MAY2018:19:30:00,78.9,13.26,76.4,75.9,76.5,76.9,75.9,15,17,14,0.440,25.3,27.8,23.4,12.65,11.5,197,14,16.3,0.00296,0.00509,69.4,64.1,15,167,0,75.4,13.76,0.00,0.00
15min,AgWx,beryljct,423,10MAY2018:19:45:00,77.9,13.24,75.6,75.4,75.7,76.0,75.3,15,17,14,0.458,24.7,27.3,23.0,11.05,11.9,205,10,15.9,0.00170,0.00215,69.3,64.2,15,128,0,74.3,13.77,0.00,0.00
15min,AgWx,beryljct,423,10MAY2018:20:00:00,76.8,13.21,74.8,74.4,75.0,75.4,74.4,15,17,14,0.427,23.6,27.1,22.0,10.72,11.7,193,8.3,16.8,0.00153,0.00196,69.2,64.3,15,59,0,73.2,13.77,0.00,0.00
15min,AgWx,beryljct,423,10MAY2018:20:15:00,75.4,13.19,73.8,73.0,73.9,74.5,73.0,14,16,14,0.428,22.5,23.8,21.6,10.57,11.7,191,7.6,16.7,0.00141,0.00181,69.1,64.4,15,18,0,71.9,13.77,0.00,0.00
15min,AgWx,beryljct,423,10MAY2018:20:30:00,73.9,13.17,71.4,70.6,71.7,72.9,70.5,16,17,15,0.432,23.5,24.2,22.5,6.818,7.8,195,6.2,10.3,0.00097,0.00132,69.0,64.5,15,7,0,68.9,13.77,0.00,0.00
15min,AgWx,beryljct,423,10MAY2018:20:45:00,71.8,13.15,68.7,68.1,68.9,70.6,68.0,18,20,17,0.429,24.0,25.5,22.8,6.84,6.2,191,5.3,8.2,0.00070,0.00099,68.8,64.5,15,2,0,65.8,13.77,0.00,0.00
15min,AgWx,beryljct,423,10MAY2018:21:00:00,70.1,13.15,68.6,67.8,68.5,68.9,67.8,18,19,17,0.446,23.5,24.5,22.2,6.029,7.0,196,4.7,8.9,0.00078,0.00108,68.6,64.6,15,0,0,65.3,13.77,0.00,0.00
15min,AgWx,beryljct,423,10MAY2018:21:15:00,68.8,13.14,67.2,67.5,67.2,67.8,66.5,19,20,18,0.433,23.9,24.7,22.5,6.204,6.3,193,4.9,9.4,0.00067,0.00095,68.3,64.6,15,0,0,64.2,13.77,0.00,0.00
15min,AgWx,beryljct,423,10MAY2018:21:30:00,68.1,13.13,68.8,69.7,68.4,69.9,67.1,18,20,16,0.421,23.2,24.5,21.4,10.98,7.6,197,5.5,12.5,0.00083,0.00114,68.1,64.7,15,0,0,65.5,13.77,0.00,0.00
15min,AgWx,beryljct,423,10MAY2018:21:45:00,68.5,13.13,70.4,70.7,70.2,70.7,69.7,16,17,16,0.417,22.6,23.4,21.6,10.39,9.3,198,7.2,14.2,0.00105,0.00139,67.8,64.7,15,0,0,67.8,13.77,0.00,0.00
15min,AgWx,beryljct,423,10MAY2018:22:00:00,69.1,13.13,71.1,71.6,70.9,71.6,70.2,16,17,15,0.422,22.6,23.9,21.7,12.17,10.9,200,7.0,15.2,0.00121,0.00156,67.6,64.7,15,0,0,68.7,13.77,0.00,0.00
15min,AgWx,beryljct,423,10MAY2018:22:15:00,69.8,13.12,71.4,71.3,71.4,71.7,71.0,16,17,16,0.437,23.5,24.4,22.3,11.77,10.7,200,6.7,15.4,0.00120,0.00156,67.4,64.7,15,0,0,69.4,13.77,0.00,0.00
15min,AgWx,beryljct,423,10MAY2018:22:30:00,70.2,13.11,71.5,71.1,71.4,71.7,71.1,16,17,16,0.433,23.6,24.9,22.6,11.82,11.7,198,7.3,17.8,0.00127,0.00163,67.1,64.7,15,0,0,69.4,13.77,0.00,0.00
15min,AgWx,beryljct,423,10MAY2018:22:45:00,70.4,13.1,71.4,71.4,71.3,71.7,70.8,16,17,16,0.438,23.3,24.4,22.5,11.77,13.6,196,8.1,20.7,0.00140,0.00175,66.9,64.7,15,0,0,69.4,13.77,0.00,0.00
15min,AgWx,beryljct,423,10MAY2018:23:00:00,70.5,13.09,71.0,71.0,71.0,71.3,70.7,17,18,16,0.461,24.2,25.1,23.3,11.84,13.4,197,7.7,19.1,0.00137,0.00171,66.7,64.7,15,0,0,69.1,13.77,0.00,0.00
15min,AgWx,beryljct,423,10MAY2018:23:15:00,70.5,13.08,70.8,70.5,70.8,71.1,70.5,18,19,17,0.471,25.5,26.6,24.5,11.66,12.5,199,7.8,18.8,0.00129,0.00162,66.5,64.6,15,0,0,69.0,13.77,0.00,0.00
15min,AgWx,beryljct,423,10MAY2018:23:30:00,70.3,13.08,70.4,69.9,70.4,70.7,69.8,19,20,18,0.478,26.0,27.0,25.3,12.8,12.0,199,8.0,17.8,0.00123,0.00156,66.3,64.6,15,0,0,68.4,13.77,0.00,0.00
15min,AgWx,beryljct,423,10MAY2018:23:45:00,70.1,13.08,69.9,69.7,69.9,70.2,69.7,19,20,18,0.477,26.0,26.7,25.2,10.54,11.9,211,8.1,16.5,0.00121,0.00153,66.1,64.6,15,0,0,67.9,13.77,0.00,0.00
15min,AgWx,beryljct,423,11MAY2018:00:00:00,69.8,13.07,69.4,69.2,69.4,69.7,68.9,19,20,19,0.474,25.8,26.5,25.2,8.64,11.9,214,8.5,17.7,0.00119,0.00151,65.9,64.5,15,0,0,67.6,13.77,0.00,0.00
15min,AgWx,beryljct,423,11MAY2018:00:15:00,69.3,13.07,68.6,68.1,68.7,69.2,68.1,20,21,19,0.486,26.1,26.7,25.4,9.6,10.4,211,7.1,15.8,0.00106,0.00137,65.7,64.5,15,0,0,66.9,13.77,0.00,0.00
15min,AgWx,beryljct,423,11MAY2018:00:30:00,68.7,13.06,67.8,67.6,67.8,68.3,67.5,21,22,20,0.478,26.2,27.0,25.3,9.65,9.2,211,8.0,13.3,0.00094,0.00123,65.6,64.5,15,0,0,65.8,13.77,0.00,0.00
15min,AgWx,beryljct,423,11MAY2018:00:45:00,68.3,13.04,68.2,68.4,68.0,68.8,67.2,20,21,19,0.475,25.8,26.7,24.8,10.72,11.4,223,8.3,16.1,0.00111,0.00141,65.4,64.4,15,0,0,66.5,13.78,0.00,0.00
15min,AgWx,bigpiney,439,10MAY2018:01:00:00,54.7,12.81,50.6,50.5,50.6,51.1,50.1,62,64,60,0.781,37.9,38.3,37.5,6.664,9.5,335,10,15.2,0.00029,0.00036,55.6,50.4,54,0,0,0.0,.,0.00,0.00
15min,AgWx,bigpiney,439,10MAY2018:01:15:00,54.6,12.81,51.5,51.1,50.7,51.1,50.4,61,62,60,0.764,37.9,38.3,37.5,8.48,8.8,317,13,13.8,0.00028,0.00035,55.4,50.3,54,0,0,0.0,.,0.00,0.00
15min,AgWx,bigpiney,439,10MAY2018:01:30:00,54.5,12.81,47.9,48.5,51.2,52.4,48.5,60,68,56,0.795,37.8,38.7,37.2,6.401,5.0,264,85,10.3,0.00017,0.00024,55.1,50.3,54,0,0,0.0,.,0.00,0.00
15min,AgWx,bigpiney,439,10MAY2018:01:45:00,54.3,12.79,49.3,49.7,48.6,50.0,48.1,68,71,63,0.777,38.6,39.1,38.0,10.35,7.3,67,24,13.2,0.00017,0.00022,54.8,50.2,54,0,0,0.0,.,0.00,0.00
15min,AgWx,bigpiney,439,10MAY2018:02:00:00,53.9,12.78,48.6,48.3,48.4,49.6,48.1,68,70,65,0.789,38.5,38.9,38.1,8.88,9.0,22,13,12.2,0.00020,0.00026,54.6,50.2,54,0,0,0.0,.,0.00,0.00
15min,AgWx,bigpiney,439,10MAY2018:02:15:00,53.5,12.77,48.1,47.9,47.9,48.3,47.7,70,71,69,0.790,38.6,38.9,38.4,4.45,7.7,3.3,14,10.7,0.00016,0.00021,54.4,50.1,54,0,0,0.0,.,0.00,0.00
15min,AgWx,bigpiney,439,10MAY2018:02:30:00,53.2,12.77,48.4,48.8,48.4,48.9,47.8,68,70,66,0.790,38.2,38.6,38.0,2.872,4.4,354,15,6.9,0.00008,0.00012,54.1,50.1,54,0,0,0.0,.,0.00,0.00
15min,AgWx,bigpiney,439,10MAY2018:02:45:00,52.9,12.76,47.0,47.0,47.6,48.7,46.9,70,73,68,0.793,38.4,38.8,38.0,5.546,4.9,135,32,6.2,0.00008,0.00012,53.9,50.1,54,0,0,0.0,.,0.00,0.00
15min,AgWx,bigpiney,439,10MAY2018:03:00:00,52.4,12.74,46.7,46.3,46.6,46.9,46.3,75,76,72,0.793,38.9,39.2,38.5,4.669,4.7,49,20,6.8,0.00005,0.00008,53.7,50.0,54,0,0,0.0,.,0.00,0.00
15min,AgWx,bigpiney,439,10MAY2018:03:15:00,52.0,12.74,46.2,46.1,46.1,46.4,45.9,75,76,74,0.798,38.6,38.8,38.3,4.998,5.2,37,18,7.8,0.00006,0.00009,53.4,49.9,54,0,0,0.0,.,0.00,0.00
15min,AgWx,bigpiney,439,10MAY2018:03:30:00,51.5,12.72,46.7,46.1,46.0,46.1,45.8,75,76,75,0.796,38.7,38.9,38.5,5.809,5.5,64,11,8.5,0.00006,0.00009,53.2,49.9,54,0,0,0.0,.,0.00,0.00
15min,AgWx,bigpiney,439,10MAY2018:03:45:00,51.1,12.72,46.4,46.5,46.2,46.8,45.9,74,76,71,0.781,38.4,38.8,37.8,5.59,5.2,41,12,6.7,0.00007,0.00010,53.0,49.9,54,0,0,0.0,.,0.00,0.00
15min,AgWx,bigpiney,439,10MAY2018:04:00:00,50.7,12.71,48.4,46.4,46.1,46.5,45.8,73,75,72,0.775,38.1,38.4,37.9,5.787,4.3,5.7,19,7.5,0.00004,0.00007,52.8,49.9,54,0,0,0.0,.,0.00,0.00
15min,AgWx,bigpiney,439,10MAY2018:04:15:00,50.5,12.7,47.6,47.0,46.6,47.3,45.9,71,73,69,0.779,37.8,38.2,37.5,5.437,6.0,1.7,13,7.7,0.00011,0.00015,52.6,49.8,54,0,0,0.0,.,0.00,0.00
15min,AgWx,bigpiney,439,10MAY2018:04:30:00,50.4,12.69,46.1,45.7,46.5,47.3,45.7,71,73,69,0.763,37.7,38.1,37.5,6.927,5.0,358,13,6.9,0.00008,0.00011,52.4,49.8,54,0,0,0.0,.,0.00,0.00
15min,AgWx,bigpiney,439,10MAY2018:04:45:00,50.2,12.68,45.4,45.3,45.7,46.1,45.3,72,73,71,0.752,37.3,37.6,37.0,2.85,4.5,342,13,6.6,0.00005,0.00009,52.2,49.7,54,0,0,0.0,.,0.00,0.00
15min,AgWx,bigpiney,439,10MAY2018:05:00:00,49.9,12.67,47.4,46.9,45.9,46.9,45.3,72,74,69,0.754,37.3,37.5,37.1,10.57,7.1,315,8.6,12.8,0.00012,0.00017,52.0,49.7,54,0,0,0.0,.,0.00,0.00
15min,AgWx,bigpiney,439,10MAY2018:05:15:00,49.9,12.66,47.5,47.0,47.1,47.3,46.9,67,69,66,0.734,36.9,37.3,36.6,10.33,10.1,321,8.3,14.3,0.00022,0.00028,51.9,49.6,54,0,0,0.0,.,0.00,0.00
15min,AgWx,bigpiney,439,10MAY2018:05:30:00,50.0,12.64,47.7,47.2,46.8,47.2,46.4,66,68,65,0.715,36.2,36.6,35.8,12.08,8.9,317,9.5,12.7,0.00021,0.00026,51.7,49.6,54,0,0,0.0,.,0.00,0.00
15min,AgWx,bigpiney,439,10MAY2018:05:45:00,50.1,12.64,48.2,48.0,47.9,48.1,47.1,62,65,61,0.704,35.7,35.9,35.4,9.38,11.8,309,8.5,16.6,0.00030,0.00036,51.5,49.5,54,0,0,0.0,.,0.00,0.00
15min,AgWx,bigpiney,439,10MAY2018:06:00:00,50.3,12.64,48.3,47.8,47.9,48.0,47.7,62,63,61,0.704,35.6,35.9,35.1,7.475,8.7,309,7.3,12.4,0.00025,0.00031,51.4,49.5,54,0,0,0.0,.,0.00,0.00
15min,AgWx,bigpiney,439,10MAY2018:06:15:00,50.6,12.64,48.4,47.9,48.0,48.1,47.6,62,63,60,0.707,35.4,35.7,35.1,5.239,6.4,307,9.4,10.1,0.00019,0.00026,51.2,49.4,54,1,0,0.0,.,0.00,0.00
15min,AgWx,bigpiney,439,10MAY2018:06:30:00,50.7,12.63,48.2,47.7,47.9,48.1,47.7,62,63,61,0.707,35.5,35.9,35.2,7.475,6.2,312,9.9,9.0,0.00049,0.00085,51.0,49.4,54,6,0,0.0,.,0.00,0.00
15min,AgWx,bigpiney,439,10MAY2018:06:45:00,50.9,12.63,49.5,49.2,48.6,49.3,47.8,59,63,55,0.674,34.8,35.7,33.9,14.89,11.6,295,12,18.9,0.00086,0.00147,50.8,49.3,54,11,2,0.0,.,0.00,0.00
15min,AgWx,bigpiney,439,10MAY2018:07:00:00,51.2,12.63,48.9,48.6,48.8,49.3,48.5,58,59,56,0.680,34.5,35.0,34.0,8.51,11.0,305,13,17.8,0.00088,0.00149,50.7,49.3,54,14,0,0.0,.,0.00,0.00
15min,AgWx,bigpiney,439,10MAY2018:07:15:00,51.4,12.66,48.1,48.1,48.5,48.7,48.1,59,63,57,0.714,34.9,35.9,34.2,4.319,7.7,272,16,12.1,0.00073,0.00119,50.5,49.2,54,28,0,0.0,.,0.00,0.00
15min,AgWx,bigpiney,439,10MAY2018:07:30:00,51.5,12.7,49.2,48.7,48.5,48.8,48.0,59,63,56,0.670,34.9,36.0,34.0,7.541,5.3,257,21,9.1,0.00068,0.00102,50.4,49.2,54,52,0,0.0,.,0.00,0.00
15min,AgWx,bigpiney,439,10MAY2018:07:45:00,51.5,12.64,49.1,48.8,48.8,48.9,48.5,57,59,55,0.660,34.3,35.0,33.6,10,9.6,271,11,13.9,0.00086,0.00142,50.2,49.2,54,28,0,0.0,.,0.00,0.00
15min,AgWx,bigpiney,439,10MAY2018:08:00:00,51.6,12.63,48.9,48.7,48.5,48.9,48.2,58,60,55,0.670,34.3,35.0,33.5,5.283,8.0,288,12,15.5,0.00074,0.00123,50.1,49.1,54,22,0,0.0,.,0.00,0.00
15min,AgWx,bigpiney,439,10MAY2018:08:15:00,51.6,12.63,48.4,48.1,48.3,48.7,48.0,59,61,57,0.685,34.7,35.3,34.1,11.03,7.1,321,12,13.1,0.00066,0.00108,49.9,49.1,54,21,0,0.0,.,0.00,0.00
15min,AgWx,bigpiney,439,10MAY2018:08:30:00,51.6,12.67,48.9,48.6,48.5,48.7,48.1,59,60,59,0.690,34.9,35.3,34.6,12.17,13.9,324,8.4,17.7,0.00105,0.00173,49.8,49.0,54,36,0,0.0,.,0.00,0.00